This is the latest recevied weather packets stored in our database for station/object CE3TDM-12. If no packets are shown the sender has not sent any weather packets the latest 1 day(s).
| Time | Temp. | Humidity | Pressure | Rain* | Wind** | Luminosity | Snow |
|---|---|---|---|---|---|---|---|
| 1778033903 | 12.78° C | 32% | 776 hPa | - | - | - | - |
| 1778031613 | 13.33° C | 31% | 776.2 hPa | - | - | - | - |
| 1778031312 | 13.33° C | 31% | 776.1 hPa | - | - | - | - |
| 1778031012 | 13.33° C | 31% | 776.3 hPa | - | - | - | - |
| 1778030110 | 13.33° C | 31% | 776.5 hPa | - | - | - | - |
| 1778029509 | 13.33° C | 32% | 776.4 hPa | - | - | - | - |
| 1778029209 | 13.33° C | 31% | 776.5 hPa | - | - | - | - |
| 1778028908 | 13.33° C | 31% | 776.4 hPa | - | - | - | - |
| 1778028608 | 13.33° C | 32% | 776.4 hPa | - | - | - | - |
| 1778028306 | 13.33° C | 32% | 776.4 hPa | - | - | - | - |
| 1778027699 | 13.89° C | 31% | 776.3 hPa | - | - | - | - |
| 1778027094 | 13.89° C | 31% | 776.3 hPa | - | - | - | - |
| 1778026189 | 13.89° C | 31% | 776.3 hPa | - | - | - | - |
| 1778024987 | 13.89° C | 31% | 776.3 hPa | - | - | - | - |
| 1778024079 | 14.44° C | 31% | 776.1 hPa | - | - | - | - |
| 1778023778 | 13.89° C | 31% | 776.1 hPa | - | - | - | - |
| 1778022272 | 14.44° C | 32% | 775.7 hPa | - | - | - | - |
| 1778021970 | 14.44° C | 31% | 775.8 hPa | - | - | - | - |
| 1778021369 | 14.44° C | 31% | 775.8 hPa | - | - | - | - |
| 1778016631 | 15.56° C | 32% | 775.6 hPa | - | - | - | - |
| 1778012806 | 17.22° C | 32% | 776.1 hPa | - | - | - | - |
| 1778012505 | 17.22° C | 31% | 776.1 hPa | - | - | - | - |
| 1778012202 | 17.22° C | 32% | 776.2 hPa | - | - | - | - |
| 1778010997 | 17.22° C | 32% | 776 hPa | - | - | - | - |
| 1778010696 | 17.22° C | 32% | 776.3 hPa | - | - | - | - |
* Rain since midnight (hover to see other rain measurements)
** Current wind speed in m/s (hover to see current wind gust speed)